SGDC

Last updated on Sun Oct 06 2024 00:02:41 GMT+0000 (Coordinated Universal Time)

1 42692U 17023B 24279.16809575 -.00000240 00000+0 00000+0 0 9996 2 42692 0.0436 67.3291 0002556 142.0235 150.6632 1.00271280 27183
UTC large
Height (km)
Speed (km/s)
/
Latitude / Longitude
Inclination (degrees)
Orbital Period (minutes)
Azimuth
Elevation
Range (km)
Doppler Factor

Next 0 passes for location: London (51.5072 / 0.1276)

Sorry there are no passes over London.